Buj, Russia
Current Conditions -  °F | °C
As of 1:00 PM on Friday 24 Oct 2014 (Local Time) from UUDL Reporting Station
Clear Clear  
Wind Chill:   Ceiling: Unl
Heat Index: 19°   Visibility: 6mi
Dew Point:   Wind: 9mph
Humidity: 63%   Direction: 320°NW
Pressure: 30.56"   Gusts: NA
Location:  58.48°N, 41.53°E
Report Text: UUDL 241000Z 32004MPS CAVOK M07/M13 Q1035 NOSIG RMK QFE76823850347
Loading
Personal Weather Stations






























Interactive Weather Map
Tropical Storm Tracking
New forecast layout! Learn more

10-Day Weather Forecast

Advertisements
Track Severe Weather on mobile